Location: Sungai Bunut
(2.6333°N, 113.7333°E)
Time: 07:03:59
(UTC+00:00)

Vanguard 3 - Pass Details

Date: 11 December 2023
Orbit: 508 x 3239 km, 33.3° (Epoch: 21 February)

Event Time Altitude Azimuth Distance (km) Brightness Sun altitude
Rises 20:44:16 0° 297° (WNW) 2,902 - -22.6°
Reaches altitude 10° 20:46:47 10° 291° (WNW) 1,832 - -22.1°
Exits shadow 20:50:30 48° 219° (SW) 669 6.6 -21.2°
Maximum altitude 20:50:33 48° 216° (SW) 668 6.6 -21.2°
Drops below altitude 10° 20:54:10 10° 140° (SE) 1,756 9.8 -20.4°
Sets 20:56:32 0° 134° (SE) 2,764 11.2 -19.8°
